Printer-friendly version

IAU Minor Planet Center

Minor Planet Center

MPEC 2007-V90 : 2007 VF184

The following Minor Planet Electronic Circular may be linked-to from your own Web pages, but must not otherwise be redistributed electronically.


Read MPEC 2007-V89 Read MPEC 2007-V91


M.P.E.C. 2007-V90                                Issued 2007 Nov. 13, 14:15 UT

     The Minor Planet Electronic Circulars contain information on unusual
         minor planets and routine data on comets.  They are published
   on behalf of Commission 20 of the International Astronomical Union by the
          Minor Planet Center, Smithsonian Astrophysical Observatory,
                          Cambridge, MA 02138, U.S.A.

             Prepared using the Tamkin Foundation Computer Network

                              MPC@CFA.HARVARD.EDU
          URL http://www.cfa.harvard.edu/iau/mpc.html  ISSN 1523-6714

                                  2007 VF184

Observations:
     K07VI4F* C2007 11 11.19719 02 10 59.04 +02 58 07.4          19.5   EV090704
     K07VI4F  C2007 11 11.20985 02 11 03.95 +02 48 48.5          19.4   EV090704
     K07VI4F  C2007 11 11.22193 02 11 08.72 +02 39 53.3          19.4   EV090704
     K07VI4F  C2007 11 11.23402 02 11 13.39 +02 30 58.9          19.5   EV090704
     K07VI4F  C2007 11 12.26884 02 20 11.90 -10 48 52.5          19.1 V EV090G96
     K07VI4F  C2007 11 12.26939 02 20 12.12 -10 49 18.3          19.1 V EV090G96
     K07VI4F  C2007 11 12.26994 02 20 12.40 -10 49 44.6          18.9 V EV090G96
     K07VI4F  C2007 11 13.26654 02 29 54.63 -23 51 11.6          19.3 V EV090G96
     K07VI4F tC2007 11 13.26741 02 29 55.26 -23 51 42.7          19.1 V EV090291
     K07VI4F tC2007 11 13.27218 02 29 57.67 -23 55 23.0          19.4 V EV090291
     K07VI4F  C2007 11 13.27401 02 29 58.35 -23 56 52.3          19.4 V EV090G96
     K07VI4F  C2007 11 13.28153 02 30 02.12 -24 02 34.0          19.7 V EV090G96

Observer details:
291 LPL/Spacewatch II.  Observer J. V. Scotti.  1.8-m f/2.7 reflector + CCD.
704 Lincoln Laboratory ETS, New Mexico.  Observers M. Bezpalko, D. Torres,
    R. Kracke, G. Spitz, J. Kistler.  Measurers J. Stuart, S. Scruggs.  1.0-m
    f/2.15 reflector + CCD.
G96 Mt. Lemmon Survey.  Observer R. A. Kowalski.  Measurers E. C. Beshore,
    A. Boattini, G. J. Garradd, A. R. Gibbs, A. D. Grauer, R. E. Hill,
    R. A. Kowalski, S. M. Larson, R. H. McNaught.  1.5-m reflector + CCD.

Orbital elements:
2007 VF184                                               Earth MOID = 0.0266 AU
Epoch 2007 Oct. 27.0 TT = JDT 2454400.5                 MPC
M 310.63091              (2000.0)            P               Q
n   0.73796163     Peri.  240.95039     -0.27412231     -0.93193288
a   1.2127749      Node   227.03193     +0.95591142     -0.23700962
e   0.2430265      Incl.   18.93123     +0.10531054     -0.27445863
P   1.34           H   25.4           G   0.15           U   8
Residuals in seconds of arc
071111 704  0.0   0.4+    071112 G96  0.4-  0.2-    071113 291 (1.3-  6.7+)
071111 704  0.7-  0.3+    071112 G96  0.7-  0.2+    071113 291 (0.7-  4.1+)
071111 704  0.1+  0.7-    071112 G96  0.2-  0.0     071113 G96  0.3-  0.4-
071111 704  0.5-  0.3+    071113 G96  0.3-  0.4-    071113 G96  0.1+  0.5+

Ephemeris:
2007 VF184               a,e,i = 1.21, 0.24, 19                  q = 0.9180
Date    TT    R. A. (2000) Decl.     Delta      r     Elong.  Phase     V
2007 11 06    01 38.19   +42 32.9    0.0511   1.036   149.9    28.7    20.3
2007 11 07    01 43.17   +38 07.3    0.0457   1.032   153.9    25.0    19.9
2007 11 08    01 48.70   +32 30.8    0.0406   1.029   158.6    20.5    19.5
2007 11 09    01 54.85   +25 23.1    0.0361   1.025   163.6    15.8    19.1
2007 11 10    02 01.68   +16 23.6    0.0324   1.022   166.4    13.2    18.8
2007 11 11    02 09.29   +05 24.2    0.0296   1.019   162.4    17.1    18.7
2007 11 12    02 17.76   -07 12.3    0.0283   1.015   152.5    26.8    18.9
2007 11 13    02 27.21   -20 21.4    0.0284   1.012   140.4    38.6    19.2
2007 11 14    02 37.73   -32 40.6    0.0300   1.008   128.5    50.1    19.7
2007 11 15    02 49.47   -43 13.0    0.0328   1.005   118.1    60.2    20.1
2007 11 16    03 02.54   -51 43.4    0.0367   1.002   109.6    68.4    20.6
2007 11 17    03 17.06   -58 23.5    0.0412   0.999   102.8    74.9    21.1
2007 11 18    03 33.14   -63 34.4    0.0462   0.996    97.4    80.0    21.5
2007 11 19    03 50.85   -67 35.8    0.0515   0.992    93.1    84.0    21.9
2007 11 20    04 10.21   -70 43.9    0.0570   0.989    89.6    87.1    22.2
2007 11 21    04 31.16   -73 10.6    0.0627   0.986    86.7    89.6    22.5
2007 11 22    04 53.51   -75 04.9    0.0685   0.983    84.4    91.6    22.8
2007 11 23    05 17.00   -76 33.5    0.0745   0.980    82.4    93.3    23.0
2007 11 24    05 41.23   -77 41.5    0.0804   0.978    80.7    94.6    23.3
2007 11 25    06 05.73   -78 32.9    0.0864   0.975    79.3    95.7    23.5
2007 11 26    06 30.01   -79 11.0    0.0925   0.972    78.0    96.6    23.6

Timothy B. Spahr             (C) Copyright 2007 MPC           M.P.E.C. 2007-V90

Read MPEC 2007-V89 Read MPEC 2007-V91


Our Web policy. Index to the CBAT/MPC/ICQ pages.


Valid HTML 4.01!